FW8285 Weather Reports


time (UTC)temp
C
wind
direction
speed
KPH
gust
KPH
rain 1hr
cm
rain 24hr
cm
rain mn
cm
humidity
%
barometer
mb
20260902123050 16 134 1.6 8.0 0.00 0.38 0.00 96 1019.1
20260902121547 16 132 1.6 9.7 0.00 0.38 0.00 96 1019.1
20260902120054 16 0 1.6 14.5 0.00 0.38 0.00 95 1019.0
20260902114550 16 42 0.0 11.3 0.00 0.48 0.00 95 1018.9
20260902113048 16 0 1.6 11.3 0.00 0.48 0.00 96 1018.9
20260902111549 16 121 0.0 4.8 0.00 0.48 0.00 96 1019.0
20260902110046 16 0 0.0 6.4 0.00 0.48 0.00 96 1019.3
20260902104550 16 92 0.0 6.4 0.00 0.99 0.00 96 1019.4
20260902103049 16 0 0.0 4.8 0.00 0.99 0.00 97 1019.3
20260902101546 16 0 0.0 4.8 0.00 0.99 0.00 97 1019.3
20260902100045 16 136 1.6 6.4 0.00 0.99 0.00 97 1019.0
20260902094555 16 0 0.0 8.0 0.00 2.36 0.00 97 1018.9
20260902093049 16 0 0.0 9.7 0.00 2.36 0.00 97 1018.8
20260902091543 16 0 0.0 9.7 0.00 2.36 0.00 97 1018.7
20260902090048 16 0 0.0 8.0 0.00 2.36 0.00 97 1018.7
20260902084550 16 111 0.0 9.7 0.00 2.49 0.00 97 1018.6
20260902083046 16 282 1.6 8.0 0.00 2.49 0.00 97 1018.5
20260902081555 16 0 0.0 6.4 0.00 2.49 0.00 96 1018.4
20260902080048 16 0 1.6 8.0 0.00 2.49 0.00 96 1018.4
20260902074606 16 150 0.0 4.8 0.00 2.49 0.00 96 1018.4
20260902073043 16 28 0.0 4.8 0.00 2.49 0.00 96 1018.4
20260902071550 16 0 0.0 6.4 0.00 2.49 0.00 96 1018.5
20260902070050 16 0 1.6 4.8 0.00 2.49 0.00 96 1018.6
20260902064547 16 48 0.0 8.0 0.00 2.49 0.00 96 1018.6
20260902063100 16 138 0.0 9.7 0.00 2.49 0.00 96 1018.9
20260902061551 17 140 0.0 4.8 0.00 2.49 0.00 96 1018.9
20260902060105 17 311 0.0 9.7 0.00 2.49 0.00 96 1018.6
20260902054602 17 60 0.0 6.4 0.00 2.49 0.00 96 1018.4
20260902053054 17 123 0.0 6.4 0.00 2.49 0.00 97 1018.5
20260902051558 17 0 0.0 3.2 0.00 2.49 0.00 97 1018.5
20260902050048 17 0 0.0 4.8 0.00 2.49 0.00 97 1018.1
20260902044547 17 0 0.0 0.0 0.00 2.49 0.00 97 1017.9
20260902043104 17 0 0.0 4.8 0.00 2.49 0.00 97 1017.7
20260902041603 17 0 0.0 8.0 0.00 2.49 0.00 98 1017.6
20260902040049 18 0 0.0 3.2 0.00 2.49 0.00 97 1017.3
20260902034550 18 0 0.0 0.0 0.00 2.49 2.49 98 1017.1
20260902033049 18 0 0.0 0.0 0.00 2.49 2.49 97 1017.2
20260902031553 18 0 0.0 0.0 0.00 2.49 2.49 98 1017.2
20260902030049 18 0 0.0 1.6 0.00 2.49 2.49 97 1017.3
20260902024549 18 0 0.0 3.2 0.00 2.49 2.49 97 1017.2
20260902023053 18 0 0.0 0.0 0.00 2.49 2.49 97 1017.6
20260902021551 18 0 0.0 0.0 0.00 2.49 2.49 97 1017.5
20260902020047 18 73 0.0 3.2 0.00 2.49 2.49 96 1017.4
20260902014554 19 0 0.0 0.0 0.00 2.49 2.49 96 1017.3
20260902013057 19 0 0.0 3.2 0.00 2.49 2.49 96 1017.0
20260902011552 19 0 0.0 3.2 0.00 2.49 2.49 97 1016.8
20260902010052 19 0 0.0 1.6 0.00 2.49 2.49 97 1016.6
20260902004550 19 0 0.0 6.4 0.00 2.49 2.49 96 1016.5
20260902003128 19 0 0.0 3.2 0.00 2.49 2.49 96 1016.1
20260902001547 19 0 0.0 3.2 0.00 2.49 2.49 96 1016.3
20260902000059 19 0 0.0 0.0 0.00 2.49 2.49 96 1016.2
20260901234546 20 0 0.0 0.0 0.00 2.49 2.49 95 1016.0
20260901233054 20 0 0.0 0.0 0.00 2.49 2.49 95 1015.9
20260901231558 20 0 0.0 0.0 0.00 2.49 2.49 95 1015.9
20260901230048 20 0 0.0 0.0 0.00 2.49 2.49 94 1016.0
20260901224553 20 0 0.0 0.0 0.00 2.49 2.49 94 1016.0
20260901223048 20 0 0.0 0.0 0.00 2.49 2.49 94 1016.0
20260901221548 20 0 0.0 1.6 0.00 2.49 2.49 93 1015.7
20260901220048 20 0 0.0 3.2 0.00 2.49 2.49 93 1016.0
20260901214552 20 0 0.0 3.2 0.00 2.49 2.49 93 1016.0
20260901213046 21 5 0.0 6.4 0.00 2.49 2.49 93 1015.9
20260901211548 20 0 0.0 0.0 0.00 2.49 2.49 93 1015.8
20260901204546 20 0 0.0 8.0 0.00 2.49 2.49 93 1015.6
20260901203052 20 0 1.6 4.8 0.00 2.49 2.49 95 1015.7
20260901201548 20 0 0.0 0.0 0.00 2.49 2.49 96 1015.8
20260901200048 19 0 0.0 8.0 0.00 2.49 2.49 95 1015.9
20260901194546 20 31 0.0 4.8 0.00 2.49 2.49 95 1015.9
20260901193056 20 0 0.0 4.8 0.00 2.49 2.49 96 1015.9
20260901191551 20 0 0.0 4.8 0.00 2.49 2.49 96 1015.7
20260901190113 20 86 0.0 9.7 0.00 2.49 2.49 96 1015.5
20260901184544 20 0 0.0 3.2 0.00 2.49 2.49 96 1015.4
20260901183050 20 0 1.6 6.4 0.00 2.49 2.49 96 1015.5
20260901181552 20 0 0.0 3.2 0.00 2.49 2.49 97 1015.5
20260901180049 20 0 0.0 1.6 0.00 2.49 2.49 98 1015.5
20260901174553 19 0 0.0 6.4 0.00 2.49 2.49 98 1015.4
20260901173052 19 9 1.6 8.0 0.00 2.49 2.49 98 1015.4
20260901171601 19 0 0.0 6.4 0.00 2.49 2.49 99 1015.3
20260901170050 19 0 0.0 6.4 0.00 2.49 2.49 99 1015.2
20260901164552 20 0 0.0 4.8 0.00 2.49 2.49 99 1015.2
20260901163113 19 323 0.0 8.0 0.00 2.49 2.49 99 1015.4
20260901161551 19 39 0.0 8.0 0.00 2.49 2.49 99 1015.3
20260901160048 19 0 0.0 6.4 0.00 2.49 2.49 99 1015.4
20260901154553 19 0 0.0 4.8 0.03 2.49 2.49 100 1015.4
20260901153055 19 0 0.0 4.8 0.25 2.49 2.49 99 1015.4
20260901151547 18 0 0.0 6.4 0.25 2.49 2.49 100 1014.9
20260901150049 18 0 0.0 4.8 0.25 2.49 2.49 99 1014.7
20260901144548 18 144 0.0 6.4 0.23 2.46 2.46 99 1014.8
20260901143053 18 0 0.0 0.0 0.00 2.24 2.24 99 1015.9
20260901141548 18 0 0.0 3.2 0.03 2.24 2.24 99 1015.4
20260901140056 18 58 0.0 3.2 0.05 2.24 2.24 99 1015.5
20260901134549 18 0 0.0 0.0 0.08 2.24 2.24 99 1015.3
20260901133101 18 0 0.0 4.8 0.08 2.24 2.24 99 1015.3
20260901131551 18 113 0.0 4.8 0.08 2.21 2.21 99 1015.5
20260901130046 18 0 0.0 0.0 0.05 2.18 2.18 99 1015.6
20260901124550 18 0 0.0 6.4 0.05 2.16 2.16 99 1015.9